Regional Weather Roundup
Issued by NWS

Home | Current Version | Previous Version | Text Only | Print | Product List | Glossary Off
Versions: 1 2 3 4 5 6 7 8 9 10 11 12 13 14 15 16 17 18 19 20 21 22 23 24 25 26 27 28 29 30 31 32 33 34 35 36 37 38 39 40 41 42 43 44 45 46 47 48 49 50

000
ASUS43 KDTX 271810
RWRMI
MICHIGAN HOURLY REGIONAL WEATHER ROUNDUP
NATIONAL WEATHER SERVICE DETROIT/PONTIAC MI
100 PM EST TUE JAN 27 2015

NOTE: "FAIR" INDICATES FEW OR NO CLOUDS BELOW 12,000 FEET WITH NO
SIGNIFICANT WEATHER AND/OR OBSTRUCTION TO VISIBILITY.

MIZ047>049-052>055-059>063-066>070-074>076-081>083-271900-
SOUTHEAST LOWER MICHIGAN

CITY           SKY/WX    TMP DP  RH WIND       PRES   REMARKS
ADRIAN         SUNNY     24  11  57 NE8       30.11F WCI  15
6HR MIN TEMP:  13; 6HR MAX TEMP:  24;

ALMA           SUNNY     24  10  56 NE6       30.16S WCI  17
ANN ARBOR      SUNNY     25  11  55 N13       30.11R WCI  14
BAD AXE        PTSUNNY   21  14  73 N9        30.14S WCI  11
6HR MIN TEMP:   6; 6HR MAX TEMP:  22;

CARO           MOSUNNY   24  12  62 N10       30.14S WCI  13
DETROIT CITY   SUNNY     26  12  55 N9G16     30.10F WCI  17
6HR MIN TEMP:  13; 6HR MAX TEMP:  26;

DETROIT        PTSUNNY   26  12  55 N6        30.11F WCI  19
6HR MIN TEMP:  12; 6HR MAX TEMP:  26;

FLINT          PTSUNNY   24  13  62 N9        30.13S WCI  14
6HR MIN TEMP:  10; 6HR MAX TEMP:  26;

GROSSE ILE     SUNNY     25  12  58 NE10      30.09S WCI  15
HILLSDALE      SUNNY     23  10  56 CALM      30.07S
6HR MIN TEMP:  15; 6HR MAX TEMP:  23;

HOWELL         MOSUNNY   23  12  64 N7        30.10S WCI  14
6HR MIN TEMP:   9; 6HR MAX TEMP:  23;


CITY           SKY/WX    TMP DP  RH WIND       PRES   REMARKS
JACKSON        MOSUNNY   24  11  57 N10       30.10F WCI  14
6HR MIN TEMP:  14; 6HR MAX TEMP:  25;

LAMBERTVILLE   SUNNY     27  12  54 CALM      30.11F
LANSING        PTSUNNY   23  13  65 N12       30.14S WCI  12
6HR MIN TEMP:  13; 6HR MAX TEMP:  24;

LAPEER         FAIR      22  11  61 N8        30.12S WCI  13
MASON          MOSUNNY   22  12  65 NE8       30.12S WCI  13
MONROE         MOSUNNY   25  12  58 N5        30.10S WCI  19
MT. CLEMENS    PTSUNNY   24  13  64 N14       30.08F WCI  12
6HR MIN TEMP:   9; 6HR MAX TEMP:  24;

PONTIAC        MOSUNNY   23  11  60 N9        30.09S WCI  13
6HR MIN TEMP:   8; 6HR MAX TEMP:  23;

PORT HOPE        N/A     22  13  68 NE13      30.13S WCI  10
6HR MIN TEMP:  20; 6HR MAX TEMP:  22;

PORT HURON     PTSUNNY   21  14  73 N13       30.11S WCI   9
TRI CITIES     MOSUNNY   24  13  62 NE14      30.17S WCI  12
6HR MIN TEMP:  15; 6HR MAX TEMP:  24;

TROY           MOSUNNY   25  13  60 N8        30.12S WCI  16
SAGINAW HB     MOSUNNY   25  16  68 N14G20    30.16S WCI  13
$$
MIZ043>046-050>051-056>058-064>065-071>073-077>080-271900-
SOUTHWEST LOWER MICHIGAN

CITY           SKY/WX    TMP DP  RH WIND       PRES   REMARKS
BATTLE CREEK     N/A    N/A N/A N/A MISG      30.13R
6HR MIN TEMP:  19; 6HR MAX TEMP:  25;

BENTON HARBOR  SUNNY     26  10  50 VRB3      30.15S
6HR MIN TEMP:  18; 6HR MAX TEMP:  27;

BIG RAPIDS     MOSUNNY   24  12  60 N7        30.14F WCI  16
6HR MIN TEMP:  13; 6HR MAX TEMP:  24;

COLDWATER      SUNNY     23  10  57 N3        30.11S
6HR MIN TEMP:  15; 6HR MAX TEMP:  23;

FREMONT        FAIR      24   8  50 E3        30.17S
HOLLAND        SUNNY     26  11  52 E5        30.17S WCI  20
6HR MIN TEMP:  19; 6HR MAX TEMP:  26;

GRAND RAPIDS   MOSUNNY   25  12  58 NE9       30.15S WCI  15
6HR MIN TEMP:  16; 6HR MAX TEMP:  25;

IONIA          FAIR      25  15  65 NE8       30.14S WCI  16
KALAMAZOO      SUNNY     26   8  46 VRB3      30.14R
6HR MIN TEMP:  18; 6HR MAX TEMP:  26;

LUDINGTON      SUNNY     28  11  48 E3        30.20R
6HR MIN TEMP:  10; 6HR MAX TEMP:  28;

MARSHALL       SUNNY     24  12  59 N8        30.11S WCI  15
MOUNT PLEASANT SUNNY     24   8  51 NW6       30.15F WCI  17
6HR MIN TEMP:   9; 6HR MAX TEMP:  24;

MUSKEGON       MOSUNNY   27  10  49 NE6       30.18F WCI  20
6HR MIN TEMP:  16; 6HR MAX TEMP:  27;

SOUTH HAVEN    SUNNY     28  10  46 CALM      30.16R
$$
MIZ016>042-271900-
NORTHERN LOWER MICHIGAN

CITY           SKY/WX    TMP DP  RH WIND       PRES   REMARKS
ALPENA         SUNNY     19   6  57 N8        30.21S WCI   9
6HR MIN TEMP:   3; 6HR MAX TEMP:  19;

BEAVER ISLAND  SUNNY     17   8  67 CALM      30.23S
6HR MIN TEMP:   9; 6HR MAX TEMP:  17;

BELLAIRE       SUNNY     24   4  42 N5        30.20S WCI  18
6HR MIN TEMP:   6; 6HR MAX TEMP:  24;

CADILLAC       SUNNY     21   3  45 NE7       30.12S WCI  13
CHARLEVOIX     SUNNY     20   7  56 E5        30.24S WCI  14
6HR MIN TEMP:  15; 6HR MAX TEMP:  21;

FRANKFORT      SUNNY     24  13  63 N6        30.21R WCI  17
GAYLORD        SUNNY     19   4  51 E6        30.14S WCI  11
6HR MIN TEMP:  12; 6HR MAX TEMP:  19; 6HR PCP: TRACE;

GRAYLING       SUNNY     20   4  50 N7        30.15S WCI  11
HARBOR SPRINGS SUNNY     20   6  55 E3        30.20S
HOUGHTON LAKE  SUNNY     21   5  50 CALM      30.14S
6HR MIN TEMP:  11; 6HR MAX TEMP:  22;

MANISTEE       SUNNY     25   9  50 NE7       30.20S WCI  17
OSCODA         MOSUNNY   21  13  71 NE13      30.17F WCI   9
PELLSTON       SUNNY     20   6  55 NE7       30.21F WCI  11
6HR MIN TEMP:   2; 6HR MAX TEMP:  20;

ROGERS CITY    SUNNY     18   8  65 E6        30.22F WCI   9
TRAVERSE CITY  MOSUNNY   22  11  62 N8        30.19S WCI  12
6HR MIN TEMP:   8; 6HR MAX TEMP:  23;

$$
MIZ007>008-015-271900-
EASTERN UPPER MICHIGAN

CITY           SKY/WX    TMP DP  RH WIND       PRES   REMARKS
KINROSS        SUNNY     19   0  42 E3        30.22S
6HR MIN TEMP:   3; 6HR MAX TEMP:  19;

MACKINAC ISLAN SUNNY     17   3  53 E8        30.22S WCI   7
6HR MIN TEMP:  10; 6HR MAX TEMP:  17;

NEWBERRY       SUNNY     18   0  44 CALM      30.21F
6HR MIN TEMP:   1; 6HR MAX TEMP:  18;

S. S. MARIE    SUNNY     18  -4  37 CALM      30.23S
6HR MIN TEMP:   3; 6HR MAX TEMP:  18;

MUNISING         N/A     23  11  60 SE3       30.23S
6HR MIN TEMP:   8; 6HR MAX TEMP:  23;

$$
MIZ004>006-011>014-085-271900-
CENTRAL UPPER MICHIGAN

CITY           SKY/WX    TMP DP  RH WIND       PRES   REMARKS
MANISTIQUE     SUNNY     19  11  71 S3        30.23S
6HR MIN TEMP:   4; 6HR MAX TEMP:  19;

ESCANABA       PTSUNNY   23  16  74 CALM      30.24R
6HR MIN TEMP:  16; 6HR MAX TEMP:  25;

MENOMINEE      CLOUDY    27  19  74 E6        30.22S WCI  20
6HR MIN TEMP:  18; 6HR MAX TEMP:  27;

SAWYER-GWINN   CLOUDY    19  18  93 SW3       30.18S
$$
MIZ001>003-009>011-084-271900-
WESTERN UPPER MICHIGAN

CITY           SKY/WX    TMP DP  RH WIND       PRES   REMARKS
IRON MOUNTAIN  CLOUDY    21  17  84 CALM      30.18S
6HR MIN TEMP:  13; 6HR MAX TEMP:  21;

HOUGHTON       SUNNY     23  16  74 S6        30.16S WCI  16
6HR MIN TEMP:  11; 6HR MAX TEMP:  23; 6HR PCP:  0.29;

COPPER HARBOR    N/A     26  17  68 MISG      30.20R
6HR MIN TEMP:  15; 6HR MAX TEMP:  26;

IRONWOOD       CLOUDY    25  19  80 CALM      30.12F
6HR MIN TEMP:  19; 6HR MAX TEMP:  25;

$$

ABBREVIATIONS USED IN REMARKS
   TC - TEMPERATURE IN CELSIUS
  WCI - WIND CHILL INDEX
   HX - HEAT INDEX
  VSB - VISIBILITY



USA.gov is the U.S. government's official web portal to all federal, state and local government web resources and services.